GW1942 Weather Reports


Display with metric or nautical units.
time (UTC)temp
F
wind
direction
speed
MPH
gust
MPH
rain 1hr
in
rain 24hr
in
rain mn
in
humidity
%
barometer
mb
20260903004555 61 161 0.0 3.0 0.00 0.17 0.17 81 1006.7
20260903003042 60 161 1.0 4.0 0.00 0.17 0.17 79 1006.9
20260903001542 61 161 1.0 3.0 0.00 0.17 0.17 79 1006.9
20260903000042 60 161 1.0 2.0 0.00 0.17 0.17 81 1006.8
20260902234540 60 161 0.0 2.0 0.00 0.17 0.17 83 1006.9
20260902233040 59 161 0.0 2.0 0.00 0.17 0.17 83 1006.8
20260902231547 59 161 0.0 2.0 0.00 0.17 0.17 83 1006.7
20260902230039 60 161 1.0 3.0 0.00 0.17 0.17 82 1006.5
20260902224538 60 161 2.0 5.0 0.00 0.17 0.17 81 1006.3
20260902223037 62 161 1.0 5.0 0.00 0.17 0.17 73 1006.2
20260902221538 63 161 0.0 2.0 0.00 0.17 0.17 69 1006.4
20260902220043 62 161 0.0 2.0 0.00 0.17 0.17 68 1006.4
20260902214538 62 161 0.0 1.0 0.00 0.17 0.17 72 1006.5
20260902213035 61 161 0.0 5.0 0.00 0.17 0.17 73 1006.6
20260902211534 60 161 2.0 6.0 0.00 0.17 0.17 80 1006.6
20260902210040 59 161 1.0 6.0 0.00 0.17 0.17 79 1006.8
20260902204541 59 161 2.0 5.0 0.05 0.17 0.17 85 1007.1
20260902203032 58 161 1.0 3.0 0.14 0.17 0.17 81 1006.8
20260902201533 58 161 0.0 2.0 0.17 0.17 0.17 83 1006.7
20260902200029 57 161 0.0 3.0 0.17 0.17 0.17 85 1006.5
20260902194526 56 161 0.0 8.0 0.12 0.12 0.12 83 1006.9
20260902193023 59 160 7.0 21.0 0.02 0.02 0.02 74 1007.1
20260902191523 65 161 4.0 9.0 0.00 0.00 0.00 53 1005.8
20260902190021 67 161 6.0 11.0 0.00 0.00 0.00 51 1005.0
20260902184519 68 162 3.0 9.0 0.00 0.00 0.00 51 1004.7
20260902183017 68 162 1.0 2.0 0.00 0.00 0.00 49 1004.6
20260902181518 67 162 2.0 5.0 0.00 0.00 0.00 49 1004.6
20260902180015 67 162 2.0 4.0 0.00 0.00 0.00 50 1004.6
20260902174511 66 162 0.0 4.0 0.00 0.00 0.00 51 1004.6
20260902173009 65 162 1.0 3.0 0.00 0.00 0.00 53 1004.6
20260902171505 64 162 0.0 1.0 0.00 0.00 0.00 55 1004.8
20260902170003 63 162 0.0 3.0 0.00 0.00 0.00 56 1004.8
20260902164501 62 162 1.0 3.0 0.00 0.00 0.00 57 1004.8
20260902163002 62 162 0.0 2.0 0.00 0.00 0.00 57 1004.5
20260902161603 61 162 0.0 1.0 0.00 0.00 0.00 59 1004.6
20260902160108 61 162 0.0 2.0 0.00 0.00 0.00 60 1004.7
20260902154612 59 162 0.0 1.0 0.00 0.00 0.00 64 1004.7
20260902153100 58 162 0.0 0.0 0.00 0.00 0.00 65 1004.8
20260902151612 57 162 0.0 2.0 0.00 0.00 0.00 67 1004.7
20260902150053 56 162 0.0 0.0 0.00 0.00 0.00 70 1004.8
20260902144551 54 162 0.0 0.0 0.00 0.00 0.00 73 1005.0
20260902143049 51 162 0.0 0.0 0.00 0.00 0.00 77 1005.0
20260902141546 49 162 0.0 0.0 0.00 0.00 0.00 80 1005.2
20260902140046 48 162 0.0 0.0 0.00 0.00 0.00 81 1005.2
20260902134543 46 162 0.0 0.0 0.00 0.00 0.00 83 1005.1
20260902133057 46 162 0.0 0.0 0.00 0.00 0.00 82 1005.0
20260902131544 47 162 0.0 0.0 0.00 0.00 0.00 81 1005.1
20260902130038 47 162 0.0 0.0 0.00 0.00 0.00 82 1005.1
20260902124536 47 162 0.0 1.0 0.00 0.00 0.00 79 1005.0
20260902123035 48 162 0.0 0.0 0.00 0.00 0.00 80 1005.0
20260902121533 48 162 0.0 0.0 0.00 0.00 0.00 78 1005.1
20260902120031 50 162 0.0 2.0 0.00 0.00 0.00 76 1005.3
20260902114529 49 162 0.0 0.0 0.00 0.00 0.00 78 1005.4
20260902113028 50 162 0.0 0.0 0.00 0.00 0.00 74 1005.6
20260902111526 49 162 0.0 0.0 0.00 0.00 0.00 79 1005.4
20260902110024 48 162 0.0 0.0 0.00 0.00 0.00 79 1005.7
20260902104521 49 162 0.0 0.0 0.00 0.00 0.00 76 1005.7
20260902103034 49 162 0.0 0.0 0.00 0.00 0.00 76 1005.7
20260902101528 50 162 0.0 0.0 0.00 0.00 0.00 74 1005.8
20260902100016 51 162 0.0 2.0 0.00 0.00 0.00 72 1005.7
20260902094514 51 162 0.0 1.0 0.00 0.00 0.00 74 1005.7
20260902093010 52 162 0.0 2.0 0.00 0.00 0.00 71 1005.9
20260902091507 54 162 1.0 2.0 0.00 0.00 0.00 68 1005.9
20260902090007 54 162 0.0 1.0 0.00 0.00 0.00 68 1006.1
20260902084505 54 162 0.0 1.0 0.00 0.00 0.00 69 1006.2
20260902083003 54 162 0.0 1.0 0.00 0.00 0.00 68 1005.9
20260902081615 54 162 0.0 1.0 0.00 0.00 0.00 68 1005.8
20260902080058 55 162 1.0 2.0 0.00 0.00 0.00 66 1006.1
20260902074557 56 162 0.0 2.0 0.00 0.00 0.00 63 1006.3
20260902073052 57 162 0.0 1.0 0.00 0.00 0.00 63 1006.4
20260902071601 57 162 0.0 2.0 0.00 0.00 0.00 62 1006.5
20260902070050 60 162 2.0 5.0 0.00 0.00 0.00 57 1006.6
20260902064555 60 162 1.0 4.0 0.00 0.00 0.00 58 1006.5
20260902063046 61 162 0.0 1.0 0.00 0.00 0.00 56 1006.6
20260902061548 62 161 0.0 2.0 0.00 0.00 0.00 53 1006.6
20260902060039 62 162 1.0 2.0 0.00 0.00 0.00 54 1006.6
20260902054540 66 162 0.0 6.0 0.00 0.00 0.00 47 1006.5
20260902053038 66 162 1.0 4.0 0.00 0.00 0.00 47 1006.5
20260902051539 65 162 0.0 1.0 0.00 0.00 0.00 50 1006.6
20260902050042 68 162 0.0 0.0 0.00 0.00 0.00 46 1006.4
20260902044546 69 162 0.0 1.0 0.00 0.00 0.00 45 1006.2
20260902043036 70 162 0.0 3.0 0.00 0.00 0.00 43 1006.2
20260902041534 71 162 1.0 3.0 0.00 0.00 0.00 41 1006.3
20260902040034 72 162 0.0 3.0 0.00 0.00 0.00 40 1006.3
20260902034538 72 162 1.0 6.0 0.00 0.00 0.00 40 1006.4
20260902033034 72 162 2.0 6.0 0.00 0.00 0.00 39 1006.3
20260902031533 71 162 1.0 4.0 0.00 0.00 0.00 42 1006.5
20260902030032 69 162 1.0 3.0 0.00 0.00 0.00 47 1006.3
20260902024532 71 162 0.0 3.0 0.00 0.00 0.00 42 1006.4
20260902023032 72 161 1.0 3.0 0.00 0.00 0.00 41 1006.3
20260902021545 73 162 2.0 4.0 0.00 0.00 0.00 41 1006.4
20260902020030 74 162 4.0 10.0 0.00 0.00 0.00 39 1006.2
20260902014538 76 162 3.0 7.0 0.00 0.00 0.00 33 1006.6
20260902013030 77 162 3.0 6.0 0.00 0.00 0.00 32 1006.3
20260902011529 78 162 5.0 9.0 0.00 0.00 0.00 30 1006.2
20260902010026 79 162 5.0 10.0 0.00 0.00 0.00 29 1005.7